Location: Unspecified
(17.6330°N, 0.0000°E)
Time: 20:11:45
(UTC+00:00)

N. Korean satellite - Visible Passes

Search period start: 29 October 2020 00:00
Search period end: 08 November 2020 00:00
Orbit: 452 x 505 km, 97.2° (Epoch: 28 October)

Date Brightness Start Highest point End Pass type
(mag) Time Alt. Az. Time Alt. Az. Time Alt. Az.
29 Oct 9.4 04:42:09 10° NE 04:44:44 20° E 04:47:20 10° SSE visible
31 Oct 6.3 05:22:20 10° N 05:25:44 76° WNW 05:29:11 10° SSW visible
01 Nov 8.2 04:56:28 10° NNE 04:59:38 35° E 05:02:50 10° SSE visible
02 Nov 10.0 04:31:41 10° ENE 04:33:29 14° E 04:35:18 10° SE visible
04 Nov 6.9 05:11:04 10° NNE 05:14:28 67° E 05:17:56 10° S visible
05 Nov 9.1 04:45:31 10° NE 04:48:20 23° E 04:51:11 10° SSE visible
06 Nov 10.1 17:49:43 10° SW 17:51:36 14° W 17:53:27 10° WNW visible
07 Nov 6.4 05:25:50 10° N 05:29:16 64° WNW 05:32:45 10° SSW visible
